Location: Cedar Brake
(32.2526°N, 97.8459°W)
Time: 20:17:30
(UTC+00:00)

ALOS - Pass Details

Date: 22 April 2026
Orbit: 660 x 663 km, 98.1° (Epoch: 21 May)

Event Time Altitude Azimuth Distance (km) Brightness Sun altitude
Rises 08:47:01 0° 21° (NNE) 2,995 6.5 -34.7°
Reaches altitude 10° 08:49:22 10° 29° (NNE) 2,078 5.5 -34.4°
Enters shadow 08:51:45 27° 50° (NE) 1,269 4.1 -34.1°
